Home   Weather   Port Angeles   Past weeks

Flag for USA Past Weather in Port Angeles, Washington, USA — Yesterday and Last 2 Weeks

Now
56 °F

Overcast.


Feels Like: 56 °F
Forecast: 53 / 62 °F
Wind: 3 mph from South

Location: William R. Fairchild International Airport

Current Time: Sep 25, 2016 at 1:55:21 AM

Latest Report: Sep 25, 2016 at 12:53 AM


Visibility: 10 mi

Pressure: 30.39 "Hg

Humidity: 84%

Dew Point: 51 °F

Location of Port AngelesLocation

Past Weather in Port Angeles — Graph

°F

Port Angeles Temperature Yesterday

Maximum temperature yesterday: 59 °F (at 12:53 PM)
Minimum temperature yesterday: 46 °F (at 6:53 AM)
Average temperature yesterday: 54 °F

High & Low Weather Summary for the Past Weeks

 TemperatureHumidityPressure
High78 °F (Sep 13, 5:53 PM)97% (Sep 17, 4:53 AM)30.40 "Hg (Sep 17, 4:53 AM)
Low43 °F (Sep 22, 6:53 AM)19% (Sep 13, 5:53 PM)29.79 "Hg (Sep 17, 9:53 AM)
Average57 °F73%30.09 "Hg
* Reported Sep 9 11:53 PM — Sep 24 11:53 PM, Port Angeles, Weather by CustomWeather, © 2016

Note: Actual official high and low records may vary slightly from our data, if they occured in-between our weather recording intervals... More about our weather records

Advertising

Port Angeles Weather History for the Previous 24 Hours

Scroll right to see more
 ConditionsComfort  
Time TempWeatherWind HumidityBarometerVisibility
11:53 PM
Sat, Sep 24
56 °FOvercast.No wind84%30.40 "Hg10 mi
10:53 PM56 °FMostly cloudy.No wind81%30.40 "Hg10 mi
9:53 PM56 °FOvercast.No wind81%30.38 "Hg10 mi
8:53 PM56 °FOvercast.No wind84%30.37 "Hg10 mi
7:53 PM55 °FOvercast.No wind83%30.35 "Hg10 mi
6:53 PM57 °FOvercast.No wind81%30.34 "Hg10 mi
5:53 PM58 °FOvercast.No wind75%30.34 "Hg10 mi
4:53 PM55 °FMostly cloudy.No wind80%30.36 "Hg10 mi
3:53 PM58 °FOvercast.3 mph72%30.36 "Hg10 mi
2:53 PM58 °FPartly sunny.5 mph70%30.36 "Hg10 mi
1:53 PM58 °FPartly sunny.5 mph70%30.37 "Hg10 mi
12:53 PM59 °FPassing clouds.6 mph67%30.39 "Hg10 mi
11:53 AM56 °FScattered clouds.No wind75%30.40 "Hg10 mi
10:53 AM55 °FSunny.5 mph77%30.40 "Hg10 mi
9:53 AM57 °FSunny.3 mph72%30.37 "Hg10 mi
8:53 AM54 °FSunny.No wind77%30.35 "Hg10 mi
7:53 AM50 °FSunny.3 mph83%30.35 "Hg10 mi
6:53 AM46 °FClear.6 mph89%30.32 "Hg10 mi
5:53 AM47 °FClear.6 mph86%30.31 "Hg10 mi
4:53 AM50 °FPassing clouds.5 mph80%30.28 "Hg10 mi
3:53 AM51 °FClear.6 mph77%30.28 "Hg10 mi
2:53 AM50 °FClear.8 mph83%30.27 "Hg10 mi
1:53 AM51 °FPassing clouds.8 mph86%30.25 "Hg10 mi
Weather by CustomWeather, © 2016

See weather overviewHow to use our weather pages